Hourly Data Report for September 15, 2017

All times are specified in Local Standard Time (LST). Add 1 hour to adjust for Daylight Saving Time where and when it is observed.

CHARLOTTETOWN A
PRINCE EDWARD ISLAND

46°17'21.000" N
63°07'09.000" W
48.50 m
8300301
71706
YYG

Download Data

Hourly Data (September 2017)
Hourly Data Report for September 15, 2017
Temp Definition
°C
Dew Point Temp Definition
°C
Rel Hum Definition
%
Wind Dir Definition
10's deg

Wind Spd Definition
km/h
Visibility Definition
km
Stn Press Definition
kPa
Hmdx Definition


Wind Chill Definition


Weather Definition


TIME
00:00 Legend Double Dagger 15.4 13.6 89 36 3 24.1 100.69     LegendNANA
01:00 Legend Double Dagger 15.2 14.2 94 2 10 24.1 100.82     LegendNANA
02:00 Legend Double Dagger 14.1 13.1 93 3 18 24.1 100.87     Mainly Clear
03:00 Legend Double Dagger 13.0 11.3 90 4 9 24.1 100.95     LegendNANA
04:00 Legend Double Dagger 11.8 10.1 89 4 9 24.1 101.02     LegendNANA
05:00 Legend Double Dagger 11.6 9.4 87 3 7 24.1 101.11     Clear
06:00 Legend Double Dagger 11.2 9.5 89 2 7 24.1 101.20     LegendNANA
07:00 Legend Double Dagger 12.4 10.3 87 36 6 24.1 101.31     LegendNANA
08:00 Legend Double Dagger 15.0 10.4 74 4 7 24.1 101.38     Mostly Cloudy
09:00 Legend Double Dagger 16.6 10.0 65 6 11 24.1 101.45     LegendNANA
10:00 Legend Double Dagger 17.3 10.3 63 3 13 24.1 101.50     LegendNANA
11:00 Legend Double Dagger 17.9 8.6 54 4 7 24.1 101.53     Mainly Clear
12:00 Legend Double Dagger 18.4 8.8 53 3 6 24.1 101.53     LegendNANA
13:00 Legend Double Dagger 18.7 8.9 52 5 8 24.1 101.51     LegendNANA
14:00 Legend Double Dagger 19.1 9.7 54 6 13 24.1 101.48     Mostly Cloudy
15:00 Legend Double Dagger 19.0 10.3 57 5 13 24.1 101.48     LegendNANA
16:00 Legend Double Dagger 18.2 9.8 58 3 13 24.1 101.51     LegendNANA
17:00 Legend Double Dagger 17.1 9.6 61 4 15 24.1 101.53     Mostly Cloudy
18:00 Legend Double Dagger 15.3 10.3 72 5 9 24.1 101.54     LegendNANA
19:00 Legend Double Dagger 13.8 9.7 76 8 5 24.1 101.57     LegendNANA
20:00 Legend Double Dagger 13.0 10.4 84 13 7 24.1 101.58     Mainly Clear
21:00 Legend Double Dagger 13.0 10.6 85 12 5 24.1 101.58     LegendNANA
22:00 Legend Double Dagger 13.0 10.6 85 14 10 24.1 101.54     LegendNANA
23:00 Legend Double Dagger 13.3 10.8 85 15 13 24.1 101.51     Mainly Clear

Notes on Data Quality.

Legend

  • E = Estimated
  • M = Missing
  • NA = Not Available
  • ‡ = Partner data that is not subject to review by the National Climate Archives
Date modified: